| time (UTC) | temp F | wind direction | speed MPH | gust MPH | rain 1hr in | rain 24hr in | rain mn in | humidity % | barometer mb |
| 20260510192412 | 62 | 326 | 3.0 | 3.0 | 0.00 | 0.00 | 0.00 | 29 | 1017.3 |
| 20260510191908 | 61 | 325 | 9.0 | 11.0 | 0.00 | 0.00 | 0.00 | 29 | 1017.4 |
| 20260510191404 | 61 | 296 | 5.0 | 6.0 | 0.00 | 0.00 | 0.00 | 30 | 1017.4 |
| 20260510190902 | 61 | 3 | 3.0 | 5.0 | 0.00 | 0.00 | 0.00 | 28 | 1017.3 |
| 20260510190359 | 61 | 313 | 5.0 | 6.0 | 0.00 | 0.00 | 0.00 | 28 | 1017.5 |
| 20260510185855 | 61 | 250 | 2.0 | 3.0 | 0.00 | 0.00 | 0.00 | 30 | 1017.6 |
| 20260510185353 | 61 | 316 | 5.0 | 6.0 | 0.00 | 0.00 | 0.00 | 31 | 1017.3 |
| 20260510184850 | 60 | 327 | 6.0 | 7.0 | 0.00 | 0.00 | 0.00 | 29 | 1017.3 |
| 20260510184347 | 60 | 339 | 6.0 | 9.0 | 0.00 | 0.00 | 0.00 | 29 | 1017.4 |
| 20260510183847 | 60 | 280 | 3.0 | 5.0 | 0.00 | 0.00 | 0.00 | 32 | 1017.2 |
| 20260510183343 | 60 | 297 | 4.0 | 6.0 | 0.00 | 0.00 | 0.00 | 29 | 1017.4 |
| 20260510182838 | 60 | 305 | 5.0 | 8.0 | 0.00 | 0.00 | 0.00 | 31 | 1017.2 |
| 20260510182335 | 60 | 248 | 5.0 | 6.0 | 0.00 | 0.00 | 0.00 | 30 | 1017.3 |
| 20260510181831 | 59 | 327 | 5.0 | 6.0 | 0.00 | 0.00 | 0.00 | 31 | 1017.4 |
| 20260510181329 | 60 | 303 | 2.0 | 2.0 | 0.00 | 0.00 | 0.00 | 31 | 1017.1 |
| 20260510180825 | 59 | 339 | 4.0 | 6.0 | 0.00 | 0.00 | 0.00 | 28 | 1017.1 |
| 20260510180322 | 60 | 349 | 3.0 | 5.0 | 0.00 | 0.00 | 0.00 | 28 | 1017.2 |
| 20260510175819 | 60 | 296 | 7.0 | 9.0 | 0.00 | 0.00 | 0.00 | 29 | 1017.3 |
| 20260510175315 | 59 | 302 | 8.0 | 11.0 | 0.00 | 0.00 | 0.00 | 28 | 1017.2 |
| 20260510174811 | 59 | 81 | 3.0 | 6.0 | 0.00 | 0.00 | 0.00 | 29 | 1017.2 |
| 20260510174309 | 60 | 21 | 5.0 | 6.0 | 0.00 | 0.00 | 0.00 | 28 | 1017.1 |
| 20260510173805 | 60 | 223 | 3.0 | 5.0 | 0.00 | 0.00 | 0.00 | 29 | 1017.1 |
| 20260510173301 | 58 | 306 | 3.0 | 3.0 | 0.00 | 0.00 | 0.00 | 32 | 1017.2 |
| 20260510172756 | 58 | 319 | 2.0 | 3.0 | 0.00 | 0.00 | 0.00 | 30 | 1017.3 |
| 20260510172253 | 58 | 304 | 7.0 | 8.0 | 0.00 | 0.00 | 0.00 | 31 | 1017.2 |
| 20260510171749 | 59 | 315 | 3.0 | 6.0 | 0.00 | 0.00 | 0.00 | 30 | 1017.0 |
| 20260510171247 | 58 | 9 | 2.0 | 2.0 | 0.00 | 0.00 | 0.00 | 31 | 1017.2 |
| 20260510170744 | 58 | 266 | 4.0 | 6.0 | 0.00 | 0.00 | 0.00 | 32 | 1017.3 |
| 20260510170240 | 58 | 282 | 3.0 | 3.0 | 0.00 | 0.00 | 0.00 | 31 | 1017.3 |
| 20260510165735 | 58 | 358 | 5.0 | 6.0 | 0.00 | 0.00 | 0.00 | 30 | 1017.3 |
| 20260510165232 | 57 | 301 | 1.0 | 2.0 | 0.00 | 0.00 | 0.00 | 30 | 1017.7 |
| 20260510164729 | 58 | 11 | 5.0 | 6.0 | 0.00 | 0.00 | 0.00 | 32 | 1017.5 |
| 20260510164227 | 58 | 304 | 9.0 | 10.0 | 0.00 | 0.00 | 0.00 | 30 | 1017.7 |
| 20260510163726 | 58 | 297 | 10.0 | 14.0 | 0.00 | 0.00 | 0.00 | 30 | 1017.6 |
| 20260510163222 | 58 | 344 | 9.0 | 10.0 | 0.00 | 0.00 | 0.00 | 30 | 1017.3 |
| 20260510162722 | 57 | 285 | 10.0 | 11.0 | 0.00 | 0.00 | 0.00 | 29 | 1017.5 |
| 20260510162220 | 58 | 317 | 5.0 | 8.0 | 0.00 | 0.00 | 0.00 | 31 | 1017.6 |
| 20260510161715 | 58 | 350 | 8.0 | 11.0 | 0.00 | 0.00 | 0.00 | 33 | 1017.4 |
| 20260510161211 | 57 | 294 | 3.0 | 5.0 | 0.00 | 0.00 | 0.00 | 34 | 1017.2 |
| 20260510160709 | 57 | 318 | 6.0 | 8.0 | 0.00 | 0.00 | 0.00 | 32 | 1017.1 |
| 20260510160204 | 57 | 315 | 10.0 | 14.0 | 0.00 | 0.00 | 0.00 | 31 | 1017.4 |
| 20260510155700 | 57 | 320 | 11.0 | 14.0 | 0.00 | 0.00 | 0.00 | 31 | 1017.2 |
| 20260510155156 | 57 | 7 | 6.0 | 8.0 | 0.00 | 0.00 | 0.00 | 33 | 1017.2 |
| 20260510154652 | 57 | 349 | 10.0 | 14.0 | 0.00 | 0.00 | 0.00 | 34 | 1017.2 |
| 20260510154148 | 57 | 312 | 10.0 | 18.0 | 0.00 | 0.00 | 0.00 | 34 | 1017.3 |
| 20260510153643 | 57 | 279 | 7.0 | 13.0 | 0.00 | 0.00 | 0.00 | 32 | 1017.2 |
| 20260510153140 | 56 | 343 | 6.0 | 8.0 | 0.00 | 0.00 | 0.00 | 35 | 1017.1 |
| 20260510152636 | 56 | 322 | 5.0 | 7.0 | 0.00 | 0.00 | 0.00 | 37 | 1017.2 |
| 20260510152132 | 55 | 311 | 3.0 | 3.0 | 0.00 | 0.00 | 0.00 | 39 | 1017.2 |
| 20260510151629 | 56 | 328 | 5.0 | 7.0 | 0.00 | 0.00 | 0.00 | 37 | 1017.0 |
| 20260510151128 | 56 | 323 | 11.0 | 14.0 | 0.00 | 0.00 | 0.00 | 37 | 1016.9 |
| 20260510150627 | 56 | 324 | 5.0 | 7.0 | 0.00 | 0.00 | 0.00 | 37 | 1017.0 |
| 20260510150124 | 55 | 293 | 2.0 | 2.0 | 0.00 | 0.00 | 0.00 | 38 | 1017.3 |
| 20260510145620 | 55 | 349 | 2.0 | 3.0 | 0.00 | 0.00 | 0.00 | 38 | 1016.9 |
| 20260510145117 | 56 | 309 | 3.0 | 5.0 | 0.00 | 0.00 | 0.00 | 37 | 1016.9 |
| 20260510144613 | 55 | 275 | 4.0 | 6.0 | 0.00 | 0.00 | 0.00 | 39 | 1017.0 |
| 20260510144109 | 55 | 318 | 7.0 | 8.0 | 0.00 | 0.00 | 0.00 | 38 | 1016.9 |
| 20260510143605 | 54 | 293 | 6.0 | 8.0 | 0.00 | 0.00 | 0.00 | 40 | 1016.6 |
| 20260510143101 | 53 | 359 | 6.0 | 8.0 | 0.00 | 0.00 | 0.00 | 40 | 1016.9 |
| 20260510142558 | 54 | 294 | 3.0 | 5.0 | 0.00 | 0.00 | 0.00 | 41 | 1016.7 |
| 20260510142055 | 54 | 284 | 3.0 | 5.0 | 0.00 | 0.00 | 0.00 | 40 | 1016.8 |
| 20260510141551 | 53 | 311 | 2.0 | 3.0 | 0.00 | 0.00 | 0.00 | 42 | 1016.7 |
| 20260510141049 | 52 | 302 | 1.0 | 3.0 | 0.00 | 0.00 | 0.00 | 43 | 1016.8 |
| 20260510140545 | 53 | 341 | 7.0 | 9.0 | 0.00 | 0.00 | 0.00 | 41 | 1016.7 |
| 20260510140045 | 52 | 329 | 5.0 | 7.0 | 0.00 | 0.00 | 0.00 | 43 | 1016.8 |
| 20260510135541 | 52 | 1 | 2.0 | 2.0 | 0.00 | 0.00 | 0.00 | 43 | 1017.1 |
| 20260510135037 | 52 | 271 | 5.0 | 6.0 | 0.00 | 0.00 | 0.00 | 44 | 1016.8 |
| 20260510134534 | 52 | 284 | 2.0 | 2.0 | 0.00 | 0.00 | 0.00 | 46 | 1016.7 |
| 20260510134031 | 53 | 22 | 2.0 | 2.0 | 0.00 | 0.00 | 0.00 | 45 | 1016.7 |
| 20260510133527 | 52 | 268 | 1.0 | 1.0 | 0.00 | 0.00 | 0.00 | 44 | 1016.8 |
| 20260510133023 | 52 | 319 | 0.0 | 1.0 | 0.00 | 0.00 | 0.00 | 45 | 1016.7 |
| 20260510132520 | 51 | 284 | 0.0 | 0.0 | 0.00 | 0.00 | 0.00 | 46 | 1016.8 |
| 20260510132017 | 50 | 276 | 0.0 | 1.0 | 0.00 | 0.00 | 0.00 | 46 | 1016.4 |
| 20260510131515 | 51 | 250 | 2.0 | 2.0 | 0.00 | 0.00 | 0.00 | 45 | 1016.8 |
| 20260510131012 | 50 | 3 | 2.0 | 2.0 | 0.00 | 0.00 | 0.00 | 47 | 1016.6 |
| 20260510130508 | 50 | 311 | 2.0 | 2.0 | 0.00 | 0.00 | 0.00 | 47 | 1016.6 |
| 20260510130006 | 51 | 337 | 2.0 | 2.0 | 0.00 | 0.00 | 0.00 | 46 | 1016.5 |
| 20260510125501 | 50 | 309 | 2.0 | 3.0 | 0.00 | 0.00 | 0.00 | 50 | 1016.6 |
| 20260510124958 | 49 | 320 | 5.0 | 8.0 | 0.00 | 0.00 | 0.00 | 51 | 1016.4 |
| 20260510124454 | 49 | 297 | 1.0 | 2.0 | 0.00 | 0.00 | 0.00 | 52 | 1016.3 |
| 20260510123951 | 49 | 276 | 3.0 | 3.0 | 0.00 | 0.00 | 0.00 | 51 | 1016.4 |
| 20260510123447 | 49 | 274 | 3.0 | 3.0 | 0.00 | 0.00 | 0.00 | 51 | 1016.1 |
| 20260510122943 | 49 | 318 | 1.0 | 2.0 | 0.00 | 0.00 | 0.00 | 52 | 1016.3 |
| 20260510122438 | 48 | 310 | 1.0 | 1.0 | 0.00 | 0.00 | 0.00 | 54 | 1016.1 |
| 20260510121935 | 48 | 271 | 5.0 | 6.0 | 0.00 | 0.00 | 0.00 | 54 | 1016.1 |
| 20260510121432 | 47 | 333 | 4.0 | 5.0 | 0.00 | 0.00 | 0.00 | 56 | 1016.1 |
| 20260510120930 | 47 | 0 | 4.0 | 6.0 | 0.00 | 0.00 | 0.00 | 57 | 1016.1 |
| 20260510120427 | 47 | 322 | 3.0 | 3.0 | 0.00 | 0.00 | 0.00 | 58 | 1016.1 |
| 20260510115922 | 46 | 336 | 3.0 | 3.0 | 0.00 | 0.00 | 0.00 | 59 | 1016.0 |
| 20260510115420 | 46 | 325 | 3.0 | 3.0 | 0.00 | 0.00 | 0.00 | 59 | 1015.9 |
| 20260510114915 | 46 | 337 | 2.0 | 3.0 | 0.00 | 0.00 | 0.00 | 61 | 1015.9 |
| 20260510114413 | 46 | 309 | 3.0 | 3.0 | 0.00 | 0.00 | 0.00 | 62 | 1015.8 |
| 20260510113908 | 45 | 322 | 1.0 | 1.0 | 0.00 | 0.00 | 0.00 | 64 | 1015.7 |
| 20260510113404 | 45 | 298 | 4.0 | 5.0 | 0.00 | 0.00 | 0.00 | 64 | 1015.7 |
| 20260510112901 | 44 | 324 | 3.0 | 3.0 | 0.00 | 0.00 | 0.00 | 66 | 1015.6 |
| 20260510112358 | 44 | 297 | 0.0 | 1.0 | 0.00 | 0.00 | 0.00 | 68 | 1015.3 |
| 20260510111854 | 43 | 359 | 2.0 | 3.0 | 0.00 | 0.00 | 0.00 | 70 | 1015.5 |
| 20260510111351 | 42 | 294 | 0.0 | 0.0 | 0.00 | 0.00 | 0.00 | 73 | 1015.0 |
| 20260510110846 | 41 | 12 | 1.0 | 2.0 | 0.00 | 0.00 | 0.00 | 76 | 1015.3 |
| 20260510110343 | 41 | 293 | 0.0 | 0.0 | 0.00 | 0.00 | 0.00 | 77 | 1015.2 |
| 20260510105839 | 40 | 292 | 0.0 | 0.0 | 0.00 | 0.00 | 0.00 | 77 | 1014.9 |
| 20260510105339 | 39 | 291 | 0.0 | 0.0 | 0.00 | 0.00 | 0.00 | 77 | 1014.9 |
| 20260510104835 | 39 | 291 | 0.0 | 0.0 | 0.00 | 0.00 | 0.00 | 75 | 1015.1 |
| 20260510104332 | 40 | 291 | 0.0 | 0.0 | 0.00 | 0.00 | 0.00 | 75 | 1014.8 |
| 20260510103829 | 40 | 291 | 0.0 | 0.0 | 0.00 | 0.00 | 0.00 | 74 | 1014.8 |
| 20260510103326 | 41 | 292 | 0.0 | 0.0 | 0.00 | 0.00 | 0.00 | 74 | 1014.9 |
| 20260510102821 | 41 | 291 | 0.0 | 0.0 | 0.00 | 0.00 | 0.00 | 74 | 1014.9 |
| 20260510102317 | 41 | 291 | 0.0 | 0.0 | 0.00 | 0.00 | 0.00 | 73 | 1014.5 |
| 20260510101815 | 41 | 291 | 0.0 | 0.0 | 0.00 | 0.00 | 0.00 | 73 | 1014.5 |
| 20260510101313 | 41 | 292 | 1.0 | 1.0 | 0.00 | 0.00 | 0.00 | 72 | 1014.5 |
| 20260510100808 | 41 | 293 | 1.0 | 1.0 | 0.00 | 0.00 | 0.00 | 71 | 1014.4 |
| 20260510100306 | 41 | 274 | 0.0 | 0.0 | 0.00 | 0.00 | 0.00 | 70 | 1014.2 |
| 20260510095802 | 42 | 272 | 0.0 | 0.0 | 0.00 | 0.00 | 0.00 | 70 | 1014.2 |
| 20260510095257 | 43 | 266 | 0.0 | 1.0 | 0.00 | 0.00 | 0.00 | 69 | 1014.2 |
| 20260510094756 | 43 | 289 | 0.0 | 0.0 | 0.00 | 0.00 | 0.00 | 68 | 1014.4 |
| 20260510094252 | 43 | 297 | 0.0 | 1.0 | 0.00 | 0.00 | 0.00 | 68 | 1014.3 |
| 20260510093748 | 43 | 288 | 0.0 | 0.0 | 0.00 | 0.00 | 0.00 | 68 | 1013.9 |
| 20260510093245 | 43 | 289 | 0.0 | 0.0 | 0.00 | 0.00 | 0.00 | 68 | 1014.3 |
| 20260510092741 | 43 | 281 | 0.0 | 0.0 | 0.00 | 0.00 | 0.00 | 68 | 1014.2 |
| 20260510092237 | 43 | 281 | 0.0 | 0.0 | 0.00 | 0.00 | 0.00 | 67 | 1014.0 |
| 20260510091733 | 44 | 280 | 0.0 | 0.0 | 0.00 | 0.00 | 0.00 | 66 | 1014.0 |
| 20260510091230 | 44 | 284 | 0.0 | 0.0 | 0.00 | 0.00 | 0.00 | 66 | 1014.0 |
| 20260510090726 | 45 | 287 | 0.0 | 0.0 | 0.00 | 0.00 | 0.00 | 65 | 1013.9 |
| 20260510090224 | 45 | 312 | 0.0 | 0.0 | 0.00 | 0.00 | 0.00 | 65 | 1013.5 |
| 20260510085719 | 45 | 290 | 0.0 | 0.0 | 0.00 | 0.00 | 0.00 | 65 | 1013.4 |
| 20260510085214 | 46 | 290 | 0.0 | 0.0 | 0.00 | 0.00 | 0.00 | 65 | 1013.2 |
| 20260510084710 | 46 | 295 | 1.0 | 1.0 | 0.00 | 0.00 | 0.00 | 63 | 1013.0 |
| 20260510084207 | 46 | 289 | 0.0 | 1.0 | 0.00 | 0.00 | 0.00 | 64 | 1013.0 |
| 20260510083704 | 46 | 289 | 1.0 | 1.0 | 0.00 | 0.00 | 0.00 | 63 | 1012.8 |
| 20260510083201 | 47 | 289 | 0.0 | 0.0 | 0.00 | 0.00 | 0.00 | 62 | 1012.8 |
| 20260510082656 | 47 | 300 | 1.0 | 1.0 | 0.00 | 0.00 | 0.00 | 61 | 1012.5 |
| 20260510082152 | 47 | 316 | 2.0 | 3.0 | 0.00 | 0.00 | 0.00 | 60 | 1012.5 |
| 20260510081647 | 48 | 340 | 3.0 | 5.0 | 0.00 | 0.00 | 0.00 | 60 | 1012.6 |
| 20260510081143 | 48 | 323 | 3.0 | 3.0 | 0.00 | 0.00 | 0.00 | 60 | 1012.3 |
| 20260510080642 | 48 | 17 | 2.0 | 2.0 | 0.00 | 0.00 | 0.00 | 60 | 1012.2 |
| 20260510080140 | 48 | 282 | 3.0 | 5.0 | 0.00 | 0.00 | 0.00 | 61 | 1012.1 |
| 20260510075637 | 48 | 318 | 1.0 | 1.0 | 0.00 | 0.00 | 0.00 | 61 | 1011.8 |
| 20260510075134 | 48 | 23 | 3.0 | 3.0 | 0.00 | 0.00 | 0.00 | 61 | 1011.9 |
| 20260510074631 | 48 | 314 | 2.0 | 3.0 | 0.00 | 0.00 | 0.00 | 62 | 1011.5 |
| 20260510074126 | 48 | 313 | 2.0 | 2.0 | 0.00 | 0.00 | 0.00 | 62 | 1011.4 |
| 20260510073623 | 49 | 301 | 0.0 | 1.0 | 0.00 | 0.00 | 0.00 | 61 | 1011.4 |
| 20260510073120 | 49 | 334 | 1.0 | 1.0 | 0.00 | 0.00 | 0.00 | 61 | 1011.4 |
| 20260510072616 | 49 | 334 | 2.0 | 2.0 | 0.00 | 0.00 | 0.00 | 61 | 1011.0 |
| 20260510072113 | 49 | 309 | 2.0 | 2.0 | 0.00 | 0.00 | 0.00 | 61 | 1011.2 |
| 20260510071608 | 50 | 303 | 3.0 | 3.0 | 0.00 | 0.00 | 0.00 | 61 | 1010.9 |
| 20260510071106 | 50 | 16 | 3.0 | 3.0 | 0.00 | 0.00 | 0.00 | 61 | 1010.8 |
| 20260510070603 | 50 | 39 | 2.0 | 3.0 | 0.00 | 0.00 | 0.00 | 61 | 1010.8 |
| 20260510065557 | 49 | 346 | 1.0 | 2.0 | 0.00 | 0.00 | 0.00 | 63 | 1010.6 |
| 20260510065053 | 49 | 291 | 0.0 | 1.0 | 0.00 | 0.00 | 0.00 | 65 | 1010.5 |
| 20260510064549 | 49 | 290 | 0.0 | 0.0 | 0.00 | 0.00 | 0.00 | 64 | 1010.6 |
| 20260510064046 | 49 | 290 | 0.0 | 0.0 | 0.00 | 0.00 | 0.00 | 64 | 1010.5 |
| 20260510063543 | 49 | 288 | 0.0 | 0.0 | 0.00 | 0.00 | 0.00 | 64 | 1010.5 |
| 20260510063040 | 50 | 287 | 1.0 | 1.0 | 0.00 | 0.00 | 0.00 | 63 | 1010.5 |
| 20260510062536 | 50 | 286 | 0.0 | 0.0 | 0.00 | 0.00 | 0.00 | 62 | 1010.4 |
| 20260510062031 | 51 | 291 | 0.0 | 0.0 | 0.00 | 0.00 | 0.00 | 61 | 1010.4 |
| 20260510061528 | 51 | 301 | 0.0 | 0.0 | 0.00 | 0.00 | 0.00 | 59 | 1010.5 |
| 20260510061025 | 51 | 323 | 0.0 | 0.0 | 0.00 | 0.00 | 0.00 | 59 | 1010.5 |
| 20260510060521 | 52 | 299 | 0.0 | 0.0 | 0.00 | 0.00 | 0.00 | 59 | 1010.2 |
| 20260510060017 | 52 | 308 | 1.0 | 1.0 | 0.00 | 0.00 | 0.00 | 59 | 1010.5 |
| 20260510055513 | 52 | 292 | 0.0 | 0.0 | 0.00 | 0.00 | 0.00 | 59 | 1010.1 |
| 20260510055012 | 53 | 300 | 0.0 | 0.0 | 0.00 | 0.00 | 0.00 | 59 | 1010.3 |
| 20260510054507 | 52 | 297 | 1.0 | 2.0 | 0.00 | 0.00 | 0.00 | 59 | 1010.0 |
| 20260510054002 | 53 | 292 | 0.0 | 0.0 | 0.00 | 0.00 | 0.00 | 59 | 1010.1 |
| 20260510053457 | 53 | 301 | 1.0 | 1.0 | 0.00 | 0.00 | 0.00 | 59 | 1009.9 |
| 20260510052954 | 53 | 290 | 0.0 | 0.0 | 0.00 | 0.00 | 0.00 | 60 | 1009.8 |
| 20260510052450 | 53 | 290 | 0.0 | 0.0 | 0.00 | 0.00 | 0.00 | 60 | 1009.6 |
| 20260510051946 | 53 | 278 | 1.0 | 1.0 | 0.00 | 0.00 | 0.00 | 60 | 1009.6 |
| 20260510051442 | 53 | 307 | 0.0 | 1.0 | 0.00 | 0.00 | 0.00 | 60 | 1009.4 |
| 20260510050938 | 53 | 328 | 0.0 | 0.0 | 0.00 | 0.00 | 0.00 | 59 | 1009.3 |
| 20260510050436 | 54 | 329 | 1.0 | 1.0 | 0.00 | 0.00 | 0.00 | 58 | 1009.2 |
| 20260510045933 | 54 | 352 | 1.0 | 2.0 | 0.00 | 0.00 | 0.00 | 58 | 1009.1 |
| 20260510045430 | 53 | 29 | 2.0 | 3.0 | 0.00 | 0.00 | 0.00 | 61 | 1009.0 |
| 20260510044926 | 53 | 293 | 0.0 | 1.0 | 0.00 | 0.00 | 0.00 | 60 | 1008.9 |
| 20260510044424 | 53 | 295 | 1.0 | 1.0 | 0.00 | 0.00 | 0.00 | 60 | 1008.8 |
| 20260510043920 | 54 | 290 | 0.0 | 0.0 | 0.00 | 0.00 | 0.00 | 58 | 1008.5 |
| 20260510043416 | 54 | 291 | 0.0 | 0.0 | 0.00 | 0.00 | 0.00 | 57 | 1008.6 |
| 20260510042915 | 55 | 289 | 0.0 | 0.0 | 0.00 | 0.00 | 0.00 | 56 | 1008.5 |
| 20260510042410 | 55 | 326 | 2.0 | 2.0 | 0.00 | 0.00 | 0.00 | 55 | 1008.5 |
| 20260510041906 | 55 | 295 | 0.0 | 0.0 | 0.00 | 0.00 | 0.00 | 55 | 1008.5 |
| 20260510041403 | 56 | 286 | 0.0 | 0.0 | 0.00 | 0.00 | 0.00 | 55 | 1008.3 |
| 20260510040901 | 56 | 298 | 0.0 | 0.0 | 0.00 | 0.00 | 0.00 | 53 | 1008.4 |
| 20260510040358 | 57 | 299 | 0.0 | 1.0 | 0.00 | 0.00 | 0.00 | 52 | 1008.4 |
| 20260510035854 | 57 | 298 | 1.0 | 1.0 | 0.00 | 0.01 | 0.01 | 51 | 1008.0 |
| 20260510035349 | 57 | 306 | 1.0 | 2.0 | 0.00 | 0.01 | 0.01 | 51 | 1008.2 |
| 20260510034844 | 58 | 305 | 1.0 | 1.0 | 0.00 | 0.01 | 0.01 | 51 | 1008.1 |
| 20260510034343 | 58 | 326 | 2.0 | 3.0 | 0.00 | 0.01 | 0.01 | 50 | 1007.9 |
| 20260510033839 | 58 | 317 | 3.0 | 5.0 | 0.00 | 0.01 | 0.01 | 49 | 1007.8 |
| 20260510033336 | 58 | 317 | 3.0 | 3.0 | 0.00 | 0.01 | 0.01 | 49 | 1007.8 |
| 20260510032832 | 59 | 343 | 3.0 | 3.0 | 0.00 | 0.01 | 0.01 | 49 | 1007.7 |
| 20260510032329 | 59 | 311 | 5.0 | 8.0 | 0.00 | 0.01 | 0.01 | 48 | 1007.5 |
| 20260510031825 | 59 | 292 | 3.0 | 3.0 | 0.00 | 0.01 | 0.01 | 47 | 1007.3 |
| 20260510031320 | 59 | 281 | 3.0 | 5.0 | 0.00 | 0.01 | 0.01 | 48 | 1007.5 |
| 20260510030815 | 59 | 331 | 5.0 | 7.0 | 0.00 | 0.01 | 0.01 | 47 | 1007.0 |
| 20260510030312 | 60 | 299 | 3.0 | 3.0 | 0.00 | 0.01 | 0.01 | 47 | 1007.2 |
| 20260510025809 | 60 | 323 | 3.0 | 5.0 | 0.00 | 0.01 | 0.01 | 46 | 1007.2 |
| 20260510025306 | 60 | 301 | 8.0 | 13.0 | 0.00 | 0.01 | 0.01 | 45 | 1007.0 |
| 20260510024803 | 60 | 12 | 3.0 | 5.0 | 0.00 | 0.01 | 0.01 | 45 | 1007.0 |
| 20260510024300 | 61 | 304 | 2.0 | 2.0 | 0.00 | 0.01 | 0.01 | 46 | 1006.8 |
| 20260510023756 | 61 | 337 | 8.0 | 10.0 | 0.00 | 0.01 | 0.01 | 45 | 1006.8 |
| 20260510023253 | 62 | 335 | 9.0 | 10.0 | 0.00 | 0.01 | 0.01 | 45 | 1006.6 |
| 20260510022749 | 62 | 327 | 5.0 | 6.0 | 0.00 | 0.01 | 0.01 | 47 | 1006.7 |
| 20260510022249 | 62 | 11 | 5.0 | 6.0 | 0.00 | 0.01 | 0.01 | 49 | 1006.0 |
| 20260510021749 | 62 | 314 | 5.0 | 6.0 | 0.00 | 0.01 | 0.01 | 49 | 1006.2 |
| 20260510021247 | 62 | 321 | 6.0 | 7.0 | 0.00 | 0.01 | 0.01 | 49 | 1005.9 |
| 20260510020743 | 62 | 31 | 5.0 | 8.0 | 0.00 | 0.01 | 0.01 | 50 | 1005.6 |
| 20260510020242 | 62 | 307 | 3.0 | 3.0 | 0.00 | 0.01 | 0.01 | 51 | 1005.6 |
| 20260510015739 | 62 | 306 | 2.0 | 2.0 | 0.00 | 0.01 | 0.01 | 50 | 1005.5 |
| 20260510015235 | 63 | 288 | 2.0 | 2.0 | 0.00 | 0.01 | 0.01 | 50 | 1005.4 |
| 20260510014730 | 63 | 320 | 3.0 | 3.0 | 0.00 | 0.01 | 0.01 | 50 | 1005.1 |
| 20260510014228 | 62 | 295 | 3.0 | 3.0 | 0.00 | 0.01 | 0.01 | 50 | 1005.2 |
| 20260510013723 | 62 | 301 | 1.0 | 1.0 | 0.00 | 0.01 | 0.01 | 51 | 1004.9 |
| 20260510013219 | 62 | 295 | 1.0 | 1.0 | 0.00 | 0.01 | 0.01 | 51 | 1004.6 |
| 20260510012719 | 62 | 294 | 1.0 | 1.0 | 0.00 | 0.01 | 0.01 | 51 | 1004.4 |
| 20260510012214 | 62 | 295 | 0.0 | 0.0 | 0.00 | 0.01 | 0.01 | 50 | 1004.2 |
| 20260510011709 | 62 | 294 | 0.0 | 1.0 | 0.00 | 0.01 | 0.01 | 49 | 1004.0 |
| 20260510011205 | 63 | 287 | 0.0 | 0.0 | 0.00 | 0.01 | 0.01 | 49 | 1004.1 |
| 20260510010702 | 63 | 284 | 0.0 | 0.0 | 0.00 | 0.01 | 0.01 | 47 | 1004.0 |
| 20260510010158 | 64 | 289 | 0.0 | 0.0 | 0.00 | 0.01 | 0.01 | 47 | 1003.8 |
| 20260510005655 | 64 | 290 | 0.0 | 1.0 | 0.00 | 0.01 | 0.01 | 46 | 1003.9 |
| 20260510005151 | 64 | 272 | 0.0 | 0.0 | 0.00 | 0.01 | 0.01 | 45 | 1003.7 |
| 20260510004650 | 65 | 300 | 1.0 | 2.0 | 0.00 | 0.01 | 0.01 | 44 | 1003.7 |
| 20260510004148 | 65 | 282 | 0.0 | 1.0 | 0.00 | 0.01 | 0.01 | 44 | 1003.7 |
| 20260510003645 | 65 | 245 | 1.0 | 1.0 | 0.00 | 0.01 | 0.01 | 44 | 1003.5 |
| 20260510003140 | 66 | 279 | 0.0 | 0.0 | 0.00 | 0.01 | 0.01 | 43 | 1003.5 |
| 20260510002635 | 66 | 252 | 1.0 | 2.0 | 0.00 | 0.01 | 0.01 | 42 | 1003.4 |
| 20260510002132 | 66 | 294 | 1.0 | 1.0 | 0.00 | 0.01 | 0.01 | 42 | 1003.4 |
| 20260510001629 | 67 | 258 | 2.0 | 3.0 | 0.00 | 0.01 | 0.01 | 41 | 1003.4 |
| 20260510001128 | 67 | 297 | 5.0 | 7.0 | 0.00 | 0.01 | 0.01 | 40 | 1003.3 |
| 20260510000627 | 67 | 267 | 7.0 | 10.0 | 0.00 | 0.01 | 0.01 | 40 | 1003.2 |
| 20260510000126 | 67 | 286 | 2.0 | 2.0 | 0.00 | 0.01 | 0.01 | 40 | 1003.1 |
| 20260509235621 | 68 | 272 | 3.0 | 5.0 | 0.00 | 0.01 | 0.01 | 39 | 1003.0 |
| 20260509235118 | 68 | 277 | 6.0 | 8.0 | 0.00 | 0.01 | 0.01 | 39 | 1002.9 |
| 20260509234614 | 68 | 261 | 5.0 | 8.0 | 0.00 | 0.01 | 0.01 | 38 | 1002.9 |
| 20260509234112 | 68 | 216 | 2.0 | 3.0 | 0.00 | 0.01 | 0.01 | 37 | 1002.8 |
| 20260509233610 | 68 | 341 | 7.0 | 10.0 | 0.00 | 0.01 | 0.01 | 36 | 1002.9 |
| 20260509233107 | 68 | 16 | 5.0 | 6.0 | 0.00 | 0.01 | 0.01 | 37 | 1002.9 |
| 20260509232603 | 69 | 278 | 5.0 | 9.0 | 0.00 | 0.01 | 0.01 | 37 | 1002.7 |
| 20260509232100 | 69 | 319 | 10.0 | 14.0 | 0.00 | 0.01 | 0.01 | 37 | 1002.8 |
| 20260509231556 | 70 | 282 | 5.0 | 8.0 | 0.00 | 0.01 | 0.01 | 36 | 1002.8 |
| 20260509231054 | 69 | 292 | 4.0 | 7.0 | 0.00 | 0.01 | 0.01 | 36 | 1002.6 |
| 20260509230551 | 70 | 284 | 3.0 | 5.0 | 0.00 | 0.01 | 0.01 | 36 | 1002.8 |
| 20260509230048 | 70 | 287 | 8.0 | 10.0 | 0.00 | 0.01 | 0.01 | 36 | 1002.9 |
| 20260509225548 | 70 | 329 | 3.0 | 3.0 | 0.00 | 0.01 | 0.01 | 36 | 1002.6 |
| 20260509225044 | 70 | 304 | 11.0 | 16.0 | 0.00 | 0.01 | 0.01 | 35 | 1002.6 |
| 20260509224540 | 70 | 258 | 7.0 | 8.0 | 0.00 | 0.01 | 0.01 | 35 | 1002.6 |
| 20260509224037 | 70 | 278 | 4.0 | 9.0 | 0.00 | 0.01 | 0.01 | 36 | 1002.5 |
| 20260509223534 | 69 | 300 | 12.0 | 17.0 | 0.00 | 0.01 | 0.01 | 35 | 1002.4 |
| 20260509223032 | 70 | 271 | 9.0 | 13.0 | 0.00 | 0.01 | 0.01 | 36 | 1002.4 |
| 20260509222527 | 71 | 294 | 7.0 | 10.0 | 0.00 | 0.01 | 0.01 | 35 | 1002.3 |
| 20260509222023 | 71 | 297 | 7.0 | 10.0 | 0.00 | 0.01 | 0.01 | 34 | 1001.9 |
| 20260509221519 | 71 | 308 | 6.0 | 14.0 | 0.00 | 0.01 | 0.01 | 35 | 1002.3 |
| 20260509221015 | 71 | 284 | 7.0 | 9.0 | 0.00 | 0.01 | 0.01 | 35 | 1002.0 |
| 20260509220512 | 71 | 272 | 9.0 | 13.0 | 0.00 | 0.01 | 0.01 | 34 | 1001.7 |
| 20260509220008 | 71 | 274 | 5.0 | 9.0 | 0.00 | 0.01 | 0.01 | 34 | 1002.0 |
| 20260509215503 | 71 | 216 | 5.0 | 7.0 | 0.00 | 0.01 | 0.01 | 36 | 1001.7 |
| 20260509215001 | 71 | 336 | 5.0 | 8.0 | 0.00 | 0.01 | 0.01 | 36 | 1001.7 |
| 20260509214458 | 72 | 314 | 5.0 | 7.0 | 0.00 | 0.01 | 0.01 | 36 | 1001.6 |
| 20260509213954 | 72 | 258 | 1.0 | 2.0 | 0.00 | 0.01 | 0.01 | 37 | 1001.3 |
| 20260509213451 | 71 | 260 | 4.0 | 6.0 | 0.00 | 0.01 | 0.01 | 38 | 1001.5 |
| 20260509212948 | 71 | 255 | 7.0 | 9.0 | 0.00 | 0.01 | 0.01 | 38 | 1001.6 |
| 20260509212445 | 70 | 319 | 7.0 | 8.0 | 0.00 | 0.01 | 0.01 | 39 | 1001.5 |
| 20260509211942 | 70 | 0 | 8.0 | 11.0 | 0.00 | 0.01 | 0.01 | 39 | 1001.5 |
| 20260509211437 | 71 | 301 | 5.0 | 7.0 | 0.00 | 0.01 | 0.01 | 41 | 1001.6 |
| 20260509210934 | 70 | 259 | 3.0 | 6.0 | 0.00 | 0.01 | 0.01 | 40 | 1001.6 |
| 20260509210431 | 70 | 265 | 5.0 | 8.0 | 0.00 | 0.01 | 0.01 | 42 | 1001.7 |
| 20260509205926 | 70 | 232 | 9.0 | 11.0 | 0.00 | 0.01 | 0.01 | 42 | 1001.8 |
| 20260509205421 | 70 | 275 | 5.0 | 6.0 | 0.00 | 0.01 | 0.01 | 43 | 1001.8 |
| 20260509204917 | 70 | 277 | 7.0 | 9.0 | 0.00 | 0.01 | 0.01 | 44 | 1001.8 |
| 20260509204413 | 69 | 332 | 5.0 | 7.0 | 0.00 | 0.01 | 0.01 | 45 | 1002.0 |
| 20260509203910 | 69 | 358 | 5.0 | 10.0 | 0.00 | 0.01 | 0.01 | 45 | 1002.1 |
| 20260509203406 | 68 | 281 | 6.0 | 8.0 | 0.00 | 0.01 | 0.01 | 47 | 1002.3 |
| 20260509202904 | 69 | 353 | 8.0 | 13.0 | 0.00 | 0.01 | 0.01 | 46 | 1002.3 |
| 20260509202359 | 69 | 306 | 7.0 | 14.0 | 0.00 | 0.01 | 0.01 | 50 | 1002.4 |
| 20260509201854 | 69 | 314 | 8.0 | 11.0 | 0.00 | 0.01 | 0.01 | 53 | 1002.6 |
| 20260509201350 | 68 | 316 | 5.0 | 6.0 | 0.00 | 0.01 | 0.01 | 58 | 1002.5 |
| 20260509200848 | 67 | 291 | 6.0 | 8.0 | 0.00 | 0.01 | 0.01 | 59 | 1002.6 |
| 20260509200342 | 67 | 315 | 7.0 | 8.0 | 0.00 | 0.01 | 0.01 | 60 | 1002.7 |
| 20260509195840 | 66 | 330 | 6.0 | 8.0 | 0.00 | 0.01 | 0.01 | 64 | 1002.5 |
| 20260509195339 | 67 | 314 | 7.0 | 11.0 | 0.00 | 0.01 | 0.01 | 64 | 1002.7 |
| 20260509194839 | 66 | 288 | 4.0 | 7.0 | 0.00 | 0.01 | 0.01 | 67 | 1002.5 |
| 20260509194335 | 64 | 337 | 5.0 | 7.0 | 0.00 | 0.01 | 0.01 | 71 | 1002.5 |
| 20260509193832 | 62 | 276 | 3.0 | 3.0 | 0.05 | 0.01 | 0.01 | 75 | 1002.4 |
| 20260509193326 | 61 | 310 | 6.0 | 10.0 | 0.05 | 0.01 | 0.01 | 74 | 1002.4 |
| 20260509192823 | 60 | 315 | 4.0 | 5.0 | 0.00 | 0.00 | 0.00 | 74 | 1002.4 |